SCP
0 0 0 0 0 0 0 0 0 0 0 0 0 1 1 0 0 0 0 0 0 0 0 0 0 0 0 0 0 0 0 0 0 0 0 0 0 0 0 0 0 0 0 0
0 0 0 0 0 0 0 0 0 0 0 0 0 0 0 0 0 0 0 0 0 0 0 0 0 0 0 0 0 0 0 0 0 0 0 0 0 0 0 0 0 0 0 0
0 0 0 0 0 0 0 0 0 0 0 0 0 0 0 0 0 0 0 0 0 0 0 0 0 0 0 0 0 0 0 0 0 0 0 0 0 0 0 0 0 0 0 0
0 0 0 0 0 0 0 0 0 0 0 0 0 0 0 0 0 0 0 0 0 0 0 0 0 0 0 0 0 0 0 0 0 0 0 0 0 0 0 0 0 0 0 0
0 0 0 0 0 0 0 0 0 0 0 0 0 0 0 0 0 0 0 0 0 0 0 0 0 0 0 0 0 0 0 0 0 0 0 0 0 0 0 0 0 0 0 0
0 0 0 0 0 0 0 0 0 0 0 0 0 0 0 0 0 0 0 0 0 0 0 0 0 0 0 0 0 0 0 0 0 0 0 0 0 0 0 0 0 0 0 0
0 0 0 0 0 0 0 0 0 0 0 0 0 0 0 0 0 0 0 0 0 0 0 0 0 0 0 0 0 0 0 0 0 0 0 0 0 0 0 0 0 0 0 0
0 0 0 0 0 0 0 0 0 0 0 0 0 0 0 0 0 0 0 0 0 0 0 0 0 0 0 0 0 0 0 0 0 0 0 0 0 0 0 0 0 0 0 0
0 0 0 0 0 0 0 0 0 0 0 0 0 0 0 0 0 0 0 0 0 0 0 0 0 0 0 0 0 0 0 -0 0 0 0 -0 0 0 0 0 0 0 0 0
0 0 0 0 0 0 0 0 0 0 0 0 0 0 0 0 0 0 0 0 0 0 0 0 0 0 -0 -0 -0 0 -0 -0 0 0 0 0 0 0 0 0 0 0 0 0
0 0 0 0 0 0 0 0 0 0 0 0 0 0 0 0 0 0 0 0 0 0 0 0 0 0 0 -0 -0 -0 0 0 0 0 0 0 0 0 0 0 0 0 0 0
0 0 0 0 0 0 0 0 0 0 0 0 0 0 0 0 0 0 0 0 0 0 0 0 0 0 -0 -0 0 0 0 0 0 0 0 0 0 0 0 0 0 0 0 0
0 0 0 0 0 0 0 0 0 0 0 0 0 0 0 0 0 0 0 0 0 0 0 0 -0 0 0 0 0 0 0 0 0 0 0 0 -0 0 0 0 0 0 0 0
0 0 0 0 0 0 0 0 0 0 0 0 0 0 0 0 0 0 0 0 0 0 0 0 -0 0 0 0 0 0 0 0 0 0 0 0 0 0 0 0 0 0 0 0
0 0 0 0 0 0 0 0 0 0 0 0 0 0 0 0 0 0 0 0 0 0 0 0 0 0 0 0 0 0 0 0 0 0 0 0 0 0 0 0 0 0 0 0
0 0 -0 0 0 0 0 0 0 0 0 0 0 0 0 0 0 0 0 0 0 0 0 0 0 0 0 0 0 0 0 0 0 0 0 0 0 0 0 0 0 0 0 0
0 0 0 0 0 0 0 0 0 0 0 0 0 0 0 0 0 0 0 0 0 0 0 0 0 0 0 0 0 0 0 0 0 0 0 0 0 0 0 0 0 0 0 0
0 0 0 0 0 0 0 0 0 0 0 0 0 0 0 0 0 0 0 0 0 0 0 0 0 0 0 0 -0 -0 0 0 0 0 0 0 0 0 0 0 0 0 0 0
0 0 0 0 0 0 0 0 0 0 0 0 0 0 0 0 0 0 0 0 0 0 0 -0 0 -0 -0 0 -0 -0 -0 0 0 0 0 0 0 0 0 0 0 0 0 0
0 0 0 0 0 0 0 0 0 0 0 0 0 0 0 0 0 0 0 0 0 0 0 -0 0 0 -0 -0 -0 -0 -0 -0 0 0 0 0 0 0 0 0 0 0 0 0
0 0 0 0 0 0 0 0 0 0 0 0 0 0 0 0 0 0 0 0 0 0 0 0 0 0 0 -0 -0 -0 -0 -0 0 0 0 0 0 0 0 0 0 0 0 0
0 0 0 0 0 0 0 0 0 0 0 0 0 0 0 0 0 0 0 0 0 -0 0 0 0 0 0 0 0 -0 -0 0 0 0 0 0 0 0 0 0 0 0 0 0
0 0 0 0 0 0 0 0 0 0 0 0 0 0 0 0 0 0 0 0 0 0 0 0 0 0 0 0 0 0 0 0 0 0 0 0 0 0 0 0 0 0 0 0
0 0 0 0 0 0 0 0 0 0 0 0 0 0 0 0 0 0 0 0 0 0 0 0 0 0 0 0 0 0 0 0 0 0 0 0 0 0 0 0 0 0 0 0
0 0 0 0 0 0 0 0 0 0 0 0 0 0 0 0 0 0 0 0 0 0 0 0 0 0 0 0 0 0 0 0 0 0 0 0 0 0 0 0 0 0 0 0
0 0 0 0 0 0 0 0 0 0 0 0 0 0 0 0 0 0 0 0 0 0 -0 0 0 0 0 0 0 0 0 0 0 0 0 0 0 0 0 0 0 0 0 0
0 0 0 0 0 0 0 0 0 0 0 0 0 0 0 0 0 0 0 0 0 -0 -0 -0 0 0 0 0 0 0 0 0 0 0 0 0 0 0 0 0 0 0 0 0
Wind_Speed_500mb
5 7 11 7 10 6 7 9 7 18 18 13 8 5 8 12 17 23 26 25 25 19 16 15 19 17 17 20 21 22 22 26 30 27 30 37 31 31 32 35 31 24 21 21
12 10 18 17 15 22 15 10 17 21 10 11 11 12 18 21 18 20 23 24 21 14 11 6 13 17 19 21 25 25 20 30 29 37 32 38 43 44 39 35 36 32 23 12
8 8 10 10 7 5 7 6 11 13 11 21 11 13 12 12 14 15 21 22 22 12 6 10 14 16 23 21 23 26 33 39 36 36 36 39 38 32 32 27 25 21 17 14
8 1 7 4 9 9 21 9 11 15 18 18 18 17 11 8 11 19 22 23 20 12 6 14 20 26 27 29 30 28 31 29 30 26 27 27 33 35 30 22 18 16 15 15
10 6 4 7 7 10 7 7 3 10 11 20 24 4 2 12 11 15 16 14 10 6 10 20 21 24 17 18 20 20 21 20 21 22 26 30 28 24 21 16 15 14 19 19
6 11 12 7 8 14 8 3 23 19 14 12 19 6 5 14 10 11 17 20 12 5 2 10 15 20 28 33 27 27 33 33 30 29 24 22 20 15 14 13 13 16 16 20
6 7 6 7 15 14 7 10 31 26 18 16 8 7 5 5 7 12 9 15 8 8 5 11 13 22 27 26 28 31 26 33 32 28 19 14 11 12 11 17 18 17 21 22
6 8 6 19 10 13 12 40 36 28 24 24 23 18 9 9 16 12 8 7 10 13 15 21 19 25 35 38 30 28 27 30 24 22 20 16 14 21 21 13 21 22 19 20
6 8 1 12 2 16 41 46 35 36 31 29 22 14 14 15 16 30 37 35 32 34 33 29 22 23 38 39 35 31 23 19 17 19 22 23 19 16 18 17 18 18 15 15
8 4 6 26 38 32 34 39 40 38 37 31 30 28 25 22 29 32 33 33 30 30 30 33 29 24 18 27 28 22 21 15 14 17 21 18 13 13 13 16 15 13 10 8
10 5 18 20 30 42 44 43 42 37 32 28 24 26 25 29 30 27 24 22 21 22 25 27 23 22 21 15 15 12 8 17 17 17 18 16 14 14 15 15 13 10 6 3
9 41 13 43 52 52 48 41 33 31 29 24 18 19 22 25 19 17 18 21 19 17 17 19 15 12 12 9 1 8 6 14 14 15 17 15 20 17 13 9 5 3 2 1
14 64 25 59 58 48 43 36 29 28 25 27 25 22 24 28 27 16 13 16 12 11 10 11 9 5 7 8 9 6 7 11 15 10 8 10 17 15 10 5 3 3 6 8
57 54 57 66 64 49 39 39 39 34 29 25 25 25 22 24 19 17 13 12 11 7 5 10 9 5 10 15 19 17 16 16 9 6 5 7 8 11 10 7 7 9 13 18
61 44 65 71 57 51 49 46 41 35 32 27 23 21 23 22 21 17 14 16 7 8 12 14 9 10 14 13 15 19 18 15 11 12 10 7 7 11 13 10 11 13 18 17
54 36 68 63 59 59 53 47 41 38 33 28 25 23 21 18 18 19 19 16 8 7 8 10 17 21 16 15 13 10 10 9 8 6 5 5 6 11 8 9 15 15 12 11
64 63 65 66 66 61 54 45 38 38 34 28 26 26 25 27 26 21 11 3 7 3 9 10 10 12 9 6 5 5 7 5 2 3 7 8 7 7 11 12 14 12 11 11
53 67 66 65 63 55 50 44 38 35 31 24 29 30 29 28 22 16 5 8 12 15 11 11 9 9 7 6 7 4 8 3 5 5 5 4 6 9 11 12 12 12 14 16
49 55 55 52 47 47 48 43 33 27 27 29 32 31 29 26 16 5 3 10 18 13 12 9 8 7 10 5 6 2 10 8 7 7 10 10 7 8 11 13 14 16 16 14
52 49 53 50 44 40 42 37 30 29 28 24 28 34 31 22 15 9 7 13 16 10 7 3 9 8 2 1 12 5 5 4 9 13 13 11 11 11 15 16 17 21 23 20
52 53 53 45 42 40 35 32 31 29 29 26 27 30 25 24 22 15 15 13 13 8 6 2 10 8 2 6 14 11 6 1 2 6 6 7 10 10 14 15 17 21 24 26
52 53 50 50 48 41 33 26 23 27 31 31 28 27 27 25 22 22 14 13 14 13 10 8 14 7 0 5 10 16 13 10 11 4 2 4 6 7 9 13 14 18 22 24
53 55 56 53 44 38 32 27 27 28 24 23 26 31 25 21 21 19 14 10 9 11 10 17 14 2 5 4 11 11 10 10 10 7 4 4 2 3 5 9 12 15 16 19
58 59 52 43 38 36 35 36 32 23 18 27 30 31 28 24 22 19 11 5 5 13 14 20 17 6 4 9 10 9 7 7 6 4 4 4 4 5 6 8 12 14 14 15
61 56 47 40 36 33 31 35 32 26 32 31 30 26 23 19 10 9 7 14 16 12 22 21 16 10 5 4 3 3 4 4 4 4 4 4 3 5 7 8 9 11 13 14
58 47 37 31 29 26 26 29 31 38 33 33 33 27 21 16 11 8 10 11 18 21 29 21 17 11 8 3 1 5 6 5 2 0 1 1 1 2 3 5 8 9 11 14
46 41 39 38 29 22 22 31 37 35 33 25 23 22 18 17 9 5 7 9 19 26 31 21 13 11 10 7 2 2 6 8 7 5 4 3 2 3 2 3 5 7 11 12
Wind_Direction_500mb
59 110 95 81 59 124 114 137 133 171 142 155 131 87 62 54 36 26 24 27 32 35 38 72 84 68 62 66 80 86 85 89 81 83 98 100 102 108 105 101 102 107 116 113
48 49 96 83 48 72 46 103 75 116 102 110 102 81 47 36 30 22 10 8 6 16 18 102 84 81 77 85 97 106 111 102 105 117 112 103 106 106 107 111 112 115 116 126
146 160 129 54 354 50 97 36 128 151 164 139 135 92 54 36 24 9 359 351 350 349 41 93 82 96 99 97 106 122 114 119 118 113 106 107 107 107 118 117 117 112 100 94
133 73 169 274 3 123 105 44 82 94 142 155 151 131 102 50 19 1 8 0 344 339 130 91 107 111 106 113 115 113 116 122 116 108 107 108 113 115 116 113 106 102 94 76
123 73 87 300 201 166 159 195 179 127 128 143 159 184 104 27 9 353 337 344 0 1 66 114 113 115 123 126 125 128 129 128 123 115 114 118 116 113 110 109 98 92 85 68
117 122 187 207 165 148 143 240 176 159 161 170 153 183 254 345 335 330 341 323 266 246 114 115 114 125 130 122 118 118 117 113 111 111 113 112 105 106 117 113 112 102 95 88
99 116 285 176 159 145 151 224 155 159 159 151 125 138 65 342 302 308 3 40 61 77 160 147 139 147 139 124 131 123 123 116 111 100 96 92 99 112 121 129 119 119 113 100
112 91 221 161 130 174 160 140 149 146 137 130 131 128 104 41 38 58 70 71 81 107 105 118 128 132 121 116 119 125 112 98 114 112 101 88 100 116 126 119 125 122 108 99
127 194 233 174 208 161 150 147 150 145 145 141 137 128 102 74 95 102 93 97 92 98 92 92 95 105 100 84 96 101 118 111 117 111 90 86 82 102 116 124 128 122 118 91
120 331 91 133 136 145 147 143 143 141 136 131 118 116 106 106 128 124 118 109 103 102 97 90 95 98 62 97 123 127 135 141 116 110 80 66 68 109 110 119 122 127 134 85
86 78 115 161 161 151 143 142 142 140 138 137 134 125 131 124 127 119 107 106 104 101 99 98 95 97 101 112 121 150 157 147 135 113 81 55 77 112 124 131 119 118 107 55
202 178 151 172 161 157 153 153 152 150 152 156 151 146 142 155 152 136 120 118 115 111 107 98 81 73 79 83 326 255 232 153 144 134 77 71 76 82 98 101 114 85 34 4
162 164 161 155 158 161 156 151 146 142 140 146 155 163 153 147 144 133 132 136 129 112 91 61 54 5 46 42 41 106 155 152 146 120 74 77 77 59 52 67 26 355 344 326
147 141 137 156 160 160 153 141 134 128 125 132 133 140 152 164 163 155 150 150 128 94 82 58 38 65 93 87 82 102 103 93 114 130 97 104 54 14 342 331 338 338 328 315
152 157 165 158 153 153 149 149 147 141 142 142 138 140 145 152 156 163 165 153 107 88 91 51 80 119 113 111 104 95 87 81 74 93 82 49 357 344 2 347 343 338 322 314
161 157 156 158 160 159 161 161 160 161 162 161 161 159 151 144 139 136 130 119 77 46 77 111 96 111 112 105 105 81 82 79 85 84 22 339 338 344 352 358 334 337 333 334
144 146 156 160 166 168 171 172 174 173 170 170 172 171 162 151 147 135 131 156 297 136 130 134 139 110 86 91 96 74 63 44 41 334 44 22 59 28 2 6 356 0 358 348
171 164 164 162 167 173 180 184 182 182 181 182 185 185 180 174 173 161 179 236 192 152 160 152 146 149 120 91 102 47 338 309 356 14 43 47 41 29 9 6 20 8 349 337
163 163 167 166 170 178 183 183 183 182 189 195 196 193 188 185 183 164 295 158 156 162 178 187 214 213 204 273 234 329 39 20 10 98 89 66 42 46 37 33 28 19 13 21
168 171 173 177 183 186 182 181 179 184 188 188 189 191 190 179 170 193 179 171 163 191 214 260 187 185 280 177 178 184 6 55 78 101 82 67 56 62 46 47 45 43 44 43
176 179 181 183 176 175 177 176 177 183 179 175 182 186 189 190 189 186 186 198 180 213 229 136 159 162 136 168 176 207 242 199 149 67 62 42 39 51 46 48 47 47 46 46
181 180 184 179 170 168 171 171 168 171 169 169 179 185 178 172 167 181 192 212 243 229 207 173 161 152 106 201 207 209 219 235 233 249 307 345 13 34 44 44 47 46 43 41
186 184 175 171 173 173 165 158 160 167 172 192 186 176 171 173 185 188 196 217 202 198 193 178 180 128 37 184 190 198 215 237 229 241 268 293 334 67 50 46 48 46 40 34
182 171 170 169 172 173 167 162 164 163 162 157 159 163 162 170 178 192 203 230 199 196 190 179 182 159 92 75 116 157 173 162 179 212 163 136 115 92 79 67 55 46 36 29
170 168 170 171 173 172 170 171 173 170 162 160 161 159 164 177 175 189 236 226 218 213 178 175 186 194 213 251 232 150 125 146 120 125 120 103 92 82 74 65 52 40 36 28
167 167 164 164 165 166 173 179 178 168 170 170 171 169 179 190 212 244 264 232 212 193 179 180 184 192 204 186 153 211 234 233 248 247 121 73 3 14 48 53 44 35 31 26
161 157 156 157 157 151 157 164 169 171 172 174 172 177 194 203 224 226 259 209 193 190 183 185 201 217 216 228 277 229 224 232 242 259 281 284 299 302 339 353 347 4 16 14
Wind_Speed_850mb
5 7 11 7 10 6 7 9 7 18 18 13 8 5 8 12 17 23 26 25 25 19 16 15 19 17 17 20 21 22 22 26 30 27 30 37 31 31 32 35 31 24 21 21
12 10 18 17 15 22 15 10 17 21 10 11 11 12 18 21 18 20 23 24 21 14 11 6 13 17 19 21 25 25 20 30 29 37 32 38 43 44 39 35 36 32 23 12
8 8 10 10 7 5 7 6 11 13 11 21 11 13 12 12 14 15 21 22 22 12 6 10 14 16 23 21 23 26 33 39 36 36 36 39 38 32 32 27 25 21 17 14
8 1 7 4 9 9 21 9 11 15 18 18 18 17 11 8 11 19 22 23 20 12 6 14 20 26 27 29 30 28 31 29 30 26 27 27 33 35 30 22 18 16 15 15
10 6 4 7 7 10 7 7 3 10 11 20 24 4 2 12 11 15 16 14 10 6 10 20 21 24 17 18 20 20 21 20 21 22 26 30 28 24 21 16 15 14 19 19
6 11 12 7 8 14 8 3 23 19 14 12 19 6 5 14 10 11 17 20 12 5 2 10 15 20 28 33 27 27 33 33 30 29 24 22 20 15 14 13 13 16 16 20
6 7 6 7 15 14 7 10 31 26 18 16 8 7 5 5 7 12 9 15 8 8 5 11 13 22 27 26 28 31 26 33 32 28 19 14 11 12 11 17 18 17 21 22
6 8 6 19 10 13 12 40 36 28 24 24 23 18 9 9 16 12 8 7 10 13 15 21 19 25 35 38 30 28 27 30 24 22 20 16 14 21 21 13 21 22 19 20
6 8 1 12 2 16 41 46 35 36 31 29 22 14 14 15 16 30 37 35 32 34 33 29 22 23 38 39 35 31 23 19 17 19 22 23 19 16 18 17 18 18 15 15
8 4 6 26 38 32 34 39 40 38 37 31 30 28 25 22 29 32 33 33 30 30 30 33 29 24 18 27 28 22 21 15 14 17 21 18 13 13 13 16 15 13 10 8
10 5 18 20 30 42 44 43 42 37 32 28 24 26 25 29 30 27 24 22 21 22 25 27 23 22 21 15 15 12 8 17 17 17 18 16 14 14 15 15 13 10 6 3
9 41 13 43 52 52 48 41 33 31 29 24 18 19 22 25 19 17 18 21 19 17 17 19 15 12 12 9 1 8 6 14 14 15 17 15 20 17 13 9 5 3 2 1
14 64 25 59 58 48 43 36 29 28 25 27 25 22 24 28 27 16 13 16 12 11 10 11 9 5 7 8 9 6 7 11 15 10 8 10 17 15 10 5 3 3 6 8
57 54 57 66 64 49 39 39 39 34 29 25 25 25 22 24 19 17 13 12 11 7 5 10 9 5 10 15 19 17 16 16 9 6 5 7 8 11 10 7 7 9 13 18
61 44 65 71 57 51 49 46 41 35 32 27 23 21 23 22 21 17 14 16 7 8 12 14 9 10 14 13 15 19 18 15 11 12 10 7 7 11 13 10 11 13 18 17
54 36 68 63 59 59 53 47 41 38 33 28 25 23 21 18 18 19 19 16 8 7 8 10 17 21 16 15 13 10 10 9 8 6 5 5 6 11 8 9 15 15 12 11
64 63 65 66 66 61 54 45 38 38 34 28 26 26 25 27 26 21 11 3 7 3 9 10 10 12 9 6 5 5 7 5 2 3 7 8 7 7 11 12 14 12 11 11
53 67 66 65 63 55 50 44 38 35 31 24 29 30 29 28 22 16 5 8 12 15 11 11 9 9 7 6 7 4 8 3 5 5 5 4 6 9 11 12 12 12 14 16
49 55 55 52 47 47 48 43 33 27 27 29 32 31 29 26 16 5 3 10 18 13 12 9 8 7 10 5 6 2 10 8 7 7 10 10 7 8 11 13 14 16 16 14
52 49 53 50 44 40 42 37 30 29 28 24 28 34 31 22 15 9 7 13 16 10 7 3 9 8 2 1 12 5 5 4 9 13 13 11 11 11 15 16 17 21 23 20
52 53 53 45 42 40 35 32 31 29 29 26 27 30 25 24 22 15 15 13 13 8 6 2 10 8 2 6 14 11 6 1 2 6 6 7 10 10 14 15 17 21 24 26
52 53 50 50 48 41 33 26 23 27 31 31 28 27 27 25 22 22 14 13 14 13 10 8 14 7 0 5 10 16 13 10 11 4 2 4 6 7 9 13 14 18 22 24
53 55 56 53 44 38 32 27 27 28 24 23 26 31 25 21 21 19 14 10 9 11 10 17 14 2 5 4 11 11 10 10 10 7 4 4 2 3 5 9 12 15 16 19
58 59 52 43 38 36 35 36 32 23 18 27 30 31 28 24 22 19 11 5 5 13 14 20 17 6 4 9 10 9 7 7 6 4 4 4 4 5 6 8 12 14 14 15
61 56 47 40 36 33 31 35 32 26 32 31 30 26 23 19 10 9 7 14 16 12 22 21 16 10 5 4 3 3 4 4 4 4 4 4 3 5 7 8 9 11 13 14
58 47 37 31 29 26 26 29 31 38 33 33 33 27 21 16 11 8 10 11 18 21 29 21 17 11 8 3 1 5 6 5 2 0 1 1 1 2 3 5 8 9 11 14
46 41 39 38 29 22 22 31 37 35 33 25 23 22 18 17 9 5 7 9 19 26 31 21 13 11 10 7 2 2 6 8 7 5 4 3 2 3 2 3 5 7 11 12
Wind_Direction_850mb
59 110 95 81 59 124 114 137 133 171 142 155 131 87 62 54 36 26 24 27 32 35 38 72 84 68 62 66 80 86 85 89 81 83 98 100 102 108 105 101 102 107 116 113
48 49 96 83 48 72 46 103 75 116 102 110 102 81 47 36 30 22 10 8 6 16 18 102 84 81 77 85 97 106 111 102 105 117 112 103 106 106 107 111 112 115 116 126
146 160 129 54 354 50 97 36 128 151 164 139 135 92 54 36 24 9 359 351 350 349 41 93 82 96 99 97 106 122 114 119 118 113 106 107 107 107 118 117 117 112 100 94
133 73 169 274 3 123 105 44 82 94 142 155 151 131 102 50 19 1 8 0 344 339 130 91 107 111 106 113 115 113 116 122 116 108 107 108 113 115 116 113 106 102 94 76
123 73 87 300 201 166 159 195 179 127 128 143 159 184 104 27 9 353 337 344 0 1 66 114 113 115 123 126 125 128 129 128 123 115 114 118 116 113 110 109 98 92 85 68
117 122 187 207 165 148 143 240 176 159 161 170 153 183 254 345 335 330 341 323 266 246 114 115 114 125 130 122 118 118 117 113 111 111 113 112 105 106 117 113 112 102 95 88
99 116 285 176 159 145 151 224 155 159 159 151 125 138 65 342 302 308 3 40 61 77 160 147 139 147 139 124 131 123 123 116 111 100 96 92 99 112 121 129 119 119 113 100
112 91 221 161 130 174 160 140 149 146 137 130 131 128 104 41 38 58 70 71 81 107 105 118 128 132 121 116 119 125 112 98 114 112 101 88 100 116 126 119 125 122 108 99
127 194 233 174 208 161 150 147 150 145 145 141 137 128 102 74 95 102 93 97 92 98 92 92 95 105 100 84 96 101 118 111 117 111 90 86 82 102 116 124 128 122 118 91
120 331 91 133 136 145 147 143 143 141 136 131 118 116 106 106 128 124 118 109 103 102 97 90 95 98 62 97 123 127 135 141 116 110 80 66 68 109 110 119 122 127 134 85
86 78 115 161 161 151 143 142 142 140 138 137 134 125 131 124 127 119 107 106 104 101 99 98 95 97 101 112 121 150 157 147 135 113 81 55 77 112 124 131 119 118 107 55
202 178 151 172 161 157 153 153 152 150 152 156 151 146 142 155 152 136 120 118 115 111 107 98 81 73 79 83 326 255 232 153 144 134 77 71 76 82 98 101 114 85 34 4
162 164 161 155 158 161 156 151 146 142 140 146 155 163 153 147 144 133 132 136 129 112 91 61 54 5 46 42 41 106 155 152 146 120 74 77 77 59 52 67 26 355 344 326
147 141 137 156 160 160 153 141 134 128 125 132 133 140 152 164 163 155 150 150 128 94 82 58 38 65 93 87 82 102 103 93 114 130 97 104 54 14 342 331 338 338 328 315
152 157 165 158 153 153 149 149 147 141 142 142 138 140 145 152 156 163 165 153 107 88 91 51 80 119 113 111 104 95 87 81 74 93 82 49 357 344 2 347 343 338 322 314
161 157 156 158 160 159 161 161 160 161 162 161 161 159 151 144 139 136 130 119 77 46 77 111 96 111 112 105 105 81 82 79 85 84 22 339 338 344 352 358 334 337 333 334
144 146 156 160 166 168 171 172 174 173 170 170 172 171 162 151 147 135 131 156 297 136 130 134 139 110 86 91 96 74 63 44 41 334 44 22 59 28 2 6 356 0 358 348
171 164 164 162 167 173 180 184 182 182 181 182 185 185 180 174 173 161 179 236 192 152 160 152 146 149 120 91 102 47 338 309 356 14 43 47 41 29 9 6 20 8 349 337
163 163 167 166 170 178 183 183 183 182 189 195 196 193 188 185 183 164 295 158 156 162 178 187 214 213 204 273 234 329 39 20 10 98 89 66 42 46 37 33 28 19 13 21
168 171 173 177 183 186 182 181 179 184 188 188 189 191 190 179 170 193 179 171 163 191 214 260 187 185 280 177 178 184 6 55 78 101 82 67 56 62 46 47 45 43 44 43
176 179 181 183 176 175 177 176 177 183 179 175 182 186 189 190 189 186 186 198 180 213 229 136 159 162 136 168 176 207 242 199 149 67 62 42 39 51 46 48 47 47 46 46
181 180 184 179 170 168 171 171 168 171 169 169 179 185 178 172 167 181 192 212 243 229 207 173 161 152 106 201 207 209 219 235 233 249 307 345 13 34 44 44 47 46 43 41
186 184 175 171 173 173 165 158 160 167 172 192 186 176 171 173 185 188 196 217 202 198 193 178 180 128 37 184 190 198 215 237 229 241 268 293 334 67 50 46 48 46 40 34
182 171 170 169 172 173 167 162 164 163 162 157 159 163 162 170 178 192 203 230 199 196 190 179 182 159 92 75 116 157 173 162 179 212 163 136 115 92 79 67 55 46 36 29
170 168 170 171 173 172 170 171 173 170 162 160 161 159 164 177 175 189 236 226 218 213 178 175 186 194 213 251 232 150 125 146 120 125 120 103 92 82 74 65 52 40 36 28
167 167 164 164 165 166 173 179 178 168 170 170 171 169 179 190 212 244 264 232 212 193 179 180 184 192 204 186 153 211 234 233 248 247 121 73 3 14 48 53 44 35 31 26
161 157 156 157 157 151 157 164 169 171 172 174 172 177 194 203 224 226 259 209 193 190 183 185 201 217 216 228 277 229 224 232 242 259 281 284 299 302 339 353 347 4 16 14